Location: Newark
(23.1300°N, 73.6109°E)
Time: 18:33:01
(UTC+00:00)

N. Korean satellite - Visible Passes

Search period start: 15 May 2021 00:00
Search period end: 25 May 2021 00:00
Orbit: 450 x 501 km, 97.2° (Epoch: 14 May)

Date Brightness Start Highest point End Pass type
(mag) Time Alt. Az. Time Alt. Az. Time Alt. Az.
16 May 8.8 23:46:51 10° NE 23:49:44 25° E 23:52:37 10° SSE visible
20 May 9.4 23:32:21 10° ENE 23:34:25 15° E 23:36:30 10° SE visible
23 May 9.0 23:43:28 10° NE 23:46:14 23° E 23:49:03 10° SSE visible
